D2913 Weather Reports


Display with metric or nautical units.
time (UTC)temp
F
wind
direction
speed
MPH
gust
MPH
rain 1hr
in
rain 24hr
in
rain mn
in
humidity
%
barometer
mb
20260510111016 71 0 0.0 0.0 0.00 0.00 0.00 78 1010.5
20260510110517 71 0 0.0 0.0 0.00 0.00 0.00 78 1010.5
20260510110017 71 0 0.0 0.0 0.00 0.00 0.00 79 1010.5
20260510105516 71 0 0.0 0.0 0.00 0.00 0.00 80 1010.6
20260510104516 69 0 0.0 0.0 0.00 0.00 0.00 80 1010.5
20260510104021 69 0 0.0 0.0 0.00 0.00 0.00 80 1010.5
20260510103517 69 0 0.0 0.0 0.00 0.00 0.00 80 1010.5
20260510103017 69 0 0.0 0.0 0.00 0.00 0.00 81 1010.5
20260510102516 68 0 0.0 0.0 0.00 0.00 0.00 82 1010.3
20260510102016 67 0 0.0 0.0 0.00 0.00 0.00 81 1010.3
20260510101516 67 0 0.0 0.0 0.00 0.00 0.00 83 1010.3
20260510101016 67 0 0.0 0.0 0.00 0.00 0.00 82 1010.2
20260510100517 66 0 0.0 0.0 0.00 0.00 0.00 82 1010.2
20260510100016 66 0 0.0 0.0 0.00 0.00 0.00 82 1010.2
20260510095016 66 0 0.0 0.0 0.00 0.00 0.00 82 1010.5
20260510094517 66 0 0.0 0.0 0.00 0.00 0.00 82 1010.5
20260510094017 66 0 0.0 0.0 0.00 0.00 0.00 81 1010.6
20260510093016 66 0 0.0 0.0 0.00 0.00 0.00 81 1010.6
20260510092517 66 0 0.0 0.0 0.00 0.00 0.00 81 1010.6
20260510092016 66 0 0.0 0.0 0.00 0.00 0.00 81 1010.5
20260510091516 66 0 0.0 0.0 0.00 0.00 0.00 82 1010.6
20260510091016 65 0 0.0 0.0 0.00 0.00 0.00 83 1010.3
20260510090517 65 0 0.0 0.0 0.00 0.00 0.00 82 1010.3
20260510090016 65 0 0.0 0.0 0.00 0.00 0.00 82 1010.5
20260510085516 65 0 0.0 0.0 0.00 0.00 0.00 83 1010.5
20260510085016 65 0 0.0 0.0 0.00 0.00 0.00 83 1010.5
20260510084516 65 0 0.0 0.0 0.00 0.00 0.00 82 1010.6
20260510084017 65 0 0.0 0.0 0.00 0.00 0.00 83 1010.6
20260510083516 66 0 0.0 0.0 0.00 0.00 0.00 83 1010.9
20260510083017 65 0 0.0 0.0 0.00 0.00 0.00 84 1010.8
20260510082516 65 0 0.0 0.0 0.00 0.00 0.00 83 1010.7
20260510082016 65 0 0.0 0.0 0.00 0.00 0.00 84 1010.7
20260510081517 65 0 0.0 0.0 0.00 0.00 0.00 85 1010.7
20260510080517 63 0 0.0 0.0 0.00 0.00 0.00 86 1010.5
20260510080017 62 0 0.0 0.0 0.00 0.00 0.00 86 1010.5
20260510075516 62 0 0.0 0.0 0.00 0.00 0.00 86 1010.3
20260510075016 62 0 0.0 0.0 0.00 0.00 0.00 87 1010.5
20260510074516 61 0 0.0 0.0 0.00 0.00 0.00 87 1010.6
20260510074016 61 0 0.0 0.0 0.00 0.00 0.00 87 1010.5
20260510073516 60 0 0.0 0.0 0.00 0.00 0.00 88 1010.5
20260510073017 60 0 0.0 0.0 0.00 0.00 0.00 88 1010.3
20260510072517 60 0 0.0 0.0 0.00 0.00 0.00 88 1010.3
20260510071516 58 0 0.0 0.0 0.00 0.00 0.00 89 1010.3
20260510071016 58 0 0.0 0.0 0.00 0.00 0.00 90 1010.1
20260510070516 57 0 0.0 0.0 0.00 0.00 0.00 90 1010.1
20260510065517 57 0 0.0 0.0 0.00 0.00 0.00 90 1010.1
20260510065016 56 0 0.0 0.0 0.00 0.00 0.00 90 1010.0
20260510064516 56 0 0.0 0.0 0.00 0.00 0.00 90 1010.0
20260510064017 56 0 0.0 0.0 0.00 0.00 0.00 90 1010.1
20260510063517 56 0 0.0 0.0 0.00 0.00 0.00 89 1010.1
20260510063017 57 0 0.0 0.0 0.00 0.00 0.00 89 1010.3
20260510062517 57 0 0.0 0.0 0.00 0.00 0.00 88 1010.5
20260510062017 57 0 0.0 0.0 0.00 0.00 0.00 89 1010.5
20260510061517 57 0 0.0 0.0 0.00 0.00 0.00 89 1010.5
20260510061016 57 0 0.0 0.0 0.00 0.00 0.00 89 1010.5
20260510060516 57 0 0.0 0.0 0.00 0.00 0.00 89 1010.5
20260510060017 56 0 0.0 0.0 0.00 0.00 0.00 90 1010.6
20260510055516 56 0 0.0 0.0 0.00 0.00 0.00 90 1010.3
20260510055016 55 0 0.0 0.0 0.00 0.00 0.00 90 1010.3
20260510054517 55 0 0.0 0.0 0.00 0.00 0.00 91 1010.2
20260510054017 54 0 0.0 0.0 0.00 0.00 0.00 91 1010.2
20260510053516 53 0 0.0 0.0 0.00 0.00 0.00 90 1010.2
20260510052517 51 0 0.0 0.0 0.00 0.00 0.00 90 1010.1
20260510052017 51 0 0.0 0.0 0.00 0.00 0.00 90 1009.9
20260510051516 50 0 0.0 0.0 0.00 0.00 0.00 88 1009.8
20260510051016 49 0 0.0 0.0 0.00 0.00 0.00 87 1009.7
20260510050016 47 0 0.0 0.0 0.00 0.00 0.00 87 1009.4
20260510045517 47 0 0.0 0.0 0.00 0.00 0.00 84 1009.4
20260510045016 47 0 0.0 0.0 0.00 0.00 0.00 81 1009.3
20260510044516 46 0 0.0 0.0 0.00 0.00 0.00 82 1009.2
20260510044016 45 0 0.0 0.0 0.00 0.00 0.00 82 1009.2
20260510043517 44 0 0.0 0.0 0.00 0.00 0.00 85 1009.1
20260510043016 44 0 0.0 0.0 0.00 0.00 0.00 85 1009.2
20260510042517 44 0 0.0 0.0 0.00 0.00 0.00 84 1009.1
20260510041516 44 0 0.0 0.0 0.00 0.00 0.00 86 1009.2
20260510041016 43 0 0.0 0.0 0.00 0.00 0.00 86 1009.2
20260510040517 43 0 0.0 0.0 0.00 0.00 0.00 87 1009.2
20260510035517 43 0 0.0 0.0 0.00 0.00 0.00 90 1009.1
20260510035016 44 0 0.0 0.0 0.00 0.00 0.00 89 1009.1
20260510034517 45 0 0.0 0.0 0.00 0.00 0.00 89 1009.3
20260510034016 45 0 0.0 0.0 0.00 0.00 0.00 88 1009.4
20260510033017 45 0 0.0 0.0 0.00 0.00 0.00 88 1009.4
20260510032517 45 0 0.0 0.0 0.00 0.00 0.00 89 1009.5
20260510031516 45 0 0.0 0.0 0.00 0.00 0.00 89 1009.6
20260510031017 45 0 0.0 0.0 0.00 0.00 0.00 90 1009.6
20260510030516 45 0 0.0 0.0 0.00 0.00 0.00 90 1009.7
20260510030016 46 0 0.0 0.0 0.00 0.00 0.00 90 1009.8
20260510025517 46 0 0.0 0.0 0.00 0.00 0.00 89 1009.8
20260510025016 46 0 0.0 0.0 0.00 0.00 0.00 89 1009.8
20260510024516 46 0 0.0 0.0 0.00 0.00 0.00 89 1009.7
20260510024017 46 0 0.0 0.0 0.00 0.00 0.00 90 1009.8
20260510023516 46 0 0.0 0.0 0.00 0.00 0.00 91 1009.9
20260510023016 46 0 0.0 0.0 0.00 0.00 0.00 91 1009.9
20260510022516 47 0 0.0 0.0 0.00 0.00 0.00 91 1009.9
20260510022016 47 0 0.0 0.0 0.00 0.00 0.00 91 1009.9
20260510021516 47 0 0.0 0.0 0.00 0.00 0.00 91 1009.9
20260510021016 47 0 0.0 0.0 0.00 0.00 0.00 91 1009.9
20260510020516 47 0 0.0 0.0 0.00 0.00 0.00 91 1009.9
20260510020017 47 0 0.0 0.0 0.00 0.00 0.00 91 1010.0
20260510015017 48 0 0.0 0.0 0.00 0.00 0.00 91 1010.3
20260510014517 49 0 0.0 0.0 0.00 0.00 0.00 91 1010.6
20260510014016 49 0 0.0 0.0 0.00 0.00 0.00 91 1010.6
20260510013517 49 0 0.0 0.0 0.00 0.00 0.00 90 1010.7
20260510012016 50 0 0.0 0.0 0.00 0.00 0.00 90 1011.0
20260510011516 50 0 0.0 0.0 0.00 0.00 0.00 90 1010.9
20260510011016 50 0 0.0 0.0 0.00 0.00 0.00 90 1011.1
20260510010535 50 0 0.0 0.0 0.00 0.00 0.00 90 1010.9
20260510010016 50 0 0.0 0.0 0.00 0.00 0.00 91 1011.0
20260510005517 50 0 0.0 0.0 0.00 0.00 0.00 91 1011.0
20260510005016 50 0 0.0 0.0 0.00 0.00 0.00 91 1010.9
20260510004516 50 0 0.0 0.0 0.00 0.00 0.00 90 1010.9
20260510004016 50 0 0.0 0.0 0.00 0.00 0.00 90 1010.8
20260510003516 50 0 0.0 0.0 0.00 0.00 0.00 90 1010.9
20260510003017 51 0 0.0 0.0 0.00 0.00 0.00 89 1011.1
20260510002516 52 0 0.0 0.0 0.00 0.00 0.00 88 1011.2
20260510002016 53 0 0.0 0.0 0.00 0.00 0.00 88 1011.5
20260510001516 53 0 0.0 0.0 0.00 0.00 0.00 88 1011.5
20260510001016 53 0 0.0 0.0 0.00 0.00 0.00 88 1011.7
20260510000516 53 0 0.0 0.0 0.00 0.00 0.00 88 1011.6
20260509235517 54 0 0.0 0.0 0.00 0.00 0.00 88 1011.8
20260509235016 54 0 0.0 0.0 0.00 0.00 0.00 87 1011.9
20260509234516 54 0 0.0 0.0 0.00 0.00 0.00 87 1012.0
20260509233516 55 0 0.0 0.0 0.00 0.00 0.00 87 1012.3
20260509233016 55 0 0.0 0.0 0.00 0.00 0.00 87 1012.3
20260509232516 55 0 0.0 0.0 0.00 0.00 0.00 87 1012.4
20260509232016 55 0 0.0 0.0 0.00 0.00 0.00 87 1012.4
20260509231516 55 0 0.0 0.0 0.00 0.00 0.00 87 1012.5
20260509230516 55 0 0.0 0.0 0.00 0.00 0.00 87 1012.5
20260509230016 55 0 0.0 0.0 0.00 0.00 0.00 87 1012.4
20260509225017 55 0 0.0 0.0 0.00 0.00 0.00 87 1012.6
20260509224516 55 0 0.0 0.0 0.00 0.00 0.00 87 1012.5
20260509224016 55 0 0.0 0.0 0.00 0.00 0.00 87 1012.7
20260509223516 55 0 0.0 0.0 0.00 0.00 0.00 87 1012.6
20260509223031 55 0 0.0 0.0 0.00 0.00 0.00 86 1012.7
20260509222516 56 0 0.0 0.0 0.00 0.00 0.00 86 1012.8
20260509221516 56 0 0.0 0.0 0.00 0.00 0.00 85 1012.8
20260509221016 56 0 0.0 0.0 0.00 0.00 0.00 85 1012.8
20260509220517 56 0 0.0 0.0 0.00 0.00 0.00 85 1012.9
20260509220017 57 0 0.0 0.0 0.00 0.00 0.00 85 1012.9
20260509215516 57 0 0.0 0.0 0.00 0.00 0.00 85 1012.9
20260509215017 57 0 0.0 0.0 0.00 0.00 0.00 85 1012.9
20260509214517 57 0 0.0 0.0 0.00 0.00 0.00 85 1013.0
20260509214016 57 0 0.0 0.0 0.00 0.00 0.00 85 1013.0
20260509213516 57 0 0.0 0.0 0.00 0.00 0.00 85 1013.1
20260509213017 57 0 0.0 0.0 0.00 0.00 0.00 85 1013.1
20260509212516 57 0 0.0 0.0 0.00 0.00 0.00 85 1013.1
20260509212016 58 0 0.0 0.0 0.00 0.00 0.00 85 1013.2
20260509211016 58 0 0.0 0.0 0.00 0.00 0.00 85 1013.2
20260509210017 58 0 0.0 0.0 0.00 0.00 0.00 85 1013.3
20260509205517 58 0 0.0 0.0 0.00 0.00 0.00 85 1013.3
20260509205016 58 0 0.0 0.0 0.00 0.00 0.00 85 1013.5
20260509203516 59 0 0.0 0.0 0.00 0.00 0.00 85 1013.6
20260509203017 59 0 0.0 0.0 0.00 0.00 0.00 85 1013.7
20260509202516 59 0 0.0 0.0 0.00 0.00 0.00 85 1013.6
20260509202016 59 0 0.0 0.0 0.00 0.00 0.00 85 1013.6
20260509201531 59 0 0.0 0.0 0.00 0.00 0.00 85 1013.9
20260509201016 59 0 0.0 0.0 0.00 0.00 0.00 85 1013.7
20260509200517 60 0 0.0 0.0 0.00 0.00 0.00 85 1013.9
20260509195517 60 0 0.0 0.0 0.00 0.00 0.00 84 1014.0
20260509195016 60 0 0.0 0.0 0.00 0.00 0.00 84 1014.0
20260509194516 61 0 0.0 0.0 0.00 0.00 0.00 84 1014.1
20260509194016 61 0 0.0 0.0 0.00 0.00 0.00 84 1014.1
20260509193516 61 0 0.0 0.0 0.00 0.00 0.00 84 1014.1
20260509193017 61 0 0.0 0.0 0.00 0.00 0.00 84 1014.1
20260509192517 61 0 0.0 0.0 0.00 0.00 0.00 83 1014.0
20260509192017 62 0 0.0 0.0 0.00 0.00 0.00 83 1013.9
20260509191516 62 0 0.0 0.0 0.00 0.00 0.00 83 1014.0
20260509190516 63 0 0.0 0.0 0.00 0.00 0.00 82 1014.1
20260509190017 63 0 0.0 0.0 0.00 0.00 0.00 82 1014.1
20260509185517 63 0 0.0 0.0 0.00 0.00 0.00 82 1014.2
20260509185016 63 0 0.0 0.0 0.00 0.00 0.00 82 1014.3
20260509184516 64 0 0.0 0.0 0.00 0.00 0.00 81 1014.2
20260509184016 64 0 0.0 0.0 0.00 0.00 0.00 81 1014.3
20260509183516 64 0 0.0 0.0 0.00 0.00 0.00 80 1014.2
20260509183016 65 0 0.0 0.0 0.00 0.00 0.00 80 1014.3
20260509182517 65 0 0.0 0.0 0.00 0.00 0.00 80 1014.4
20260509182017 66 0 0.0 0.0 0.00 0.00 0.00 80 1014.4
20260509181517 66 0 0.0 0.0 0.00 0.00 0.00 79 1014.4
20260509181017 66 0 0.0 0.0 0.00 0.00 0.00 79 1014.4
20260509180016 67 0 0.0 0.0 0.00 0.00 0.00 79 1014.6
20260509175017 67 0 0.0 0.0 0.00 0.00 0.00 78 1014.6
20260509174517 67 0 0.0 0.0 0.00 0.00 0.00 78 1014.7
20260509174016 67 0 0.0 0.0 0.00 0.00 0.00 78 1014.7
20260509173516 67 0 0.0 0.0 0.00 0.00 0.00 78 1014.7
20260509173017 68 0 0.0 0.0 0.00 0.00 0.00 77 1014.6
20260509172518 68 0 0.0 0.0 0.00 0.00 0.00 77 1014.7
20260509172017 68 0 0.0 0.0 0.00 0.00 0.00 77 1014.7
20260509171516 68 0 0.0 0.0 0.00 0.00 0.00 77 1014.7
20260509170517 68 0 0.0 0.0 0.00 0.00 0.00 77 1014.6
20260509170016 68 0 0.0 0.0 0.00 0.00 0.00 77 1014.6
20260509165017 68 0 0.0 0.0 0.00 0.00 0.00 77 1014.7
20260509164517 68 0 0.0 0.0 0.00 0.00 0.00 77 1014.7
20260509164016 68 0 0.0 0.0 0.00 0.00 0.00 76 1014.7
20260509163516 69 0 0.0 0.0 0.00 0.00 0.00 77 1014.7
20260509163016 69 0 0.0 0.0 0.00 0.00 0.00 77 1014.9
20260509162516 69 0 0.0 0.0 0.00 0.00 0.00 76 1014.8
20260509162017 69 0 0.0 0.0 0.00 0.00 0.00 76 1014.8
20260509161016 69 0 0.0 0.0 0.00 0.00 0.00 75 1015.0
20260509160516 69 0 0.0 0.0 0.00 0.00 0.00 76 1015.0
20260509160017 69 0 0.0 0.0 0.00 0.00 0.00 76 1015.0
20260509155516 69 0 0.0 0.0 0.00 0.00 0.00 76 1015.0
20260509155016 69 0 0.0 0.0 0.00 0.00 0.00 75 1015.1
20260509154017 69 0 0.0 0.0 0.00 0.00 0.00 76 1015.2
20260509153516 69 0 0.0 0.0 0.00 0.00 0.00 76 1015.3
20260509153017 69 0 0.0 0.0 0.00 0.00 0.00 76 1015.4
20260509152516 70 0 0.0 0.0 0.00 0.00 0.00 75 1015.6
20260509152016 71 0 0.0 0.0 0.00 0.00 0.00 75 1015.6
20260509151517 71 0 0.0 0.0 0.00 0.00 0.00 75 1015.7
20260509151017 71 0 0.0 0.0 0.00 0.00 0.00 75 1015.7
20260509150516 71 0 0.0 0.0 0.00 0.00 0.00 75 1015.7
20260509150017 71 0 0.0 0.0 0.00 0.00 0.00 75 1015.8
20260509145516 71 0 0.0 0.0 0.00 0.00 0.00 74 1015.8
20260509145016 71 0 0.0 0.0 0.00 0.00 0.00 73 1015.8
20260509144017 71 0 0.0 0.0 0.00 0.00 0.00 75 1015.8
20260509143516 71 0 0.0 0.0 0.00 0.00 0.00 75 1015.9
20260509142517 71 0 0.0 0.0 0.00 0.00 0.00 75 1016.0
20260509142017 72 0 0.0 0.0 0.00 0.00 0.00 74 1016.1
20260509141516 73 0 0.0 0.0 0.00 0.00 0.00 73 1016.2
20260509141016 73 0 0.0 0.0 0.00 0.00 0.00 73 1016.1
20260509140516 73 0 0.0 0.0 0.00 0.00 0.00 74 1016.4
20260509135517 72 0 0.0 0.0 0.00 0.00 0.00 74 1016.2
20260509135016 71 0 0.0 0.0 0.00 0.00 0.00 73 1016.2
20260509134517 71 0 0.0 0.0 0.00 0.00 0.00 74 1016.1
20260509134016 70 0 0.0 0.0 0.00 0.00 0.00 75 1016.1
20260509133516 70 0 0.0 0.0 0.00 0.00 0.00 75 1016.2
20260509132517 72 0 0.0 0.0 0.00 0.00 0.00 74 1016.6
20260509132017 72 0 0.0 0.0 0.00 0.00 0.00 75 1016.7
20260509131517 71 0 0.0 0.0 0.00 0.00 0.00 76 1016.6
20260509130516 71 0 0.0 0.0 0.00 0.00 0.00 75 1016.6
20260509130017 71 0 0.0 0.0 0.00 0.00 0.00 74 1016.8
20260509125516 72 0 0.0 0.0 0.00 0.00 0.00 73 1016.8
20260509125016 72 0 0.0 0.0 0.00 0.00 0.00 74 1016.8
20260509124516 72 0 0.0 0.0 0.00 0.00 0.00 75 1016.8
20260509124016 72 0 0.0 0.0 0.00 0.00 0.00 74 1016.9
20260509123516 71 0 0.0 0.0 0.00 0.00 0.00 74 1017.0
20260509123017 71 0 0.0 0.0 0.00 0.00 0.00 75 1017.0
20260509122517 71 0 0.0 0.0 0.00 0.00 0.00 74 1017.0
20260509122017 71 0 0.0 0.0 0.00 0.00 0.00 73 1017.1
20260509121517 71 0 0.0 0.0 0.00 0.00 0.00 74 1017.0
20260509121016 71 0 0.0 0.0 0.00 0.00 0.00 74 1017.1
20260509120516 71 0 0.0 0.0 0.00 0.00 0.00 74 1017.3
20260509120016 71 0 0.0 0.0 0.00 0.00 0.00 74 1017.3
20260509115017 70 0 0.0 0.0 0.00 0.00 0.00 75 1017.4
20260509114516 70 0 0.0 0.0 0.00 0.00 0.00 75 1017.3
20260509114016 69 0 0.0 0.0 0.00 0.00 0.00 75 1017.1
20260509113516 69 0 0.0 0.0 0.00 0.00 0.00 76 1017.1
20260509113017 68 0 0.0 0.0 0.00 0.00 0.00 76 1017.3
20260509112518 69 0 0.0 0.0 0.00 0.00 0.00 75 1017.4
20260509112016 69 0 0.0 0.0 0.00 0.00 0.00 76 1017.3
20260509111516 69 0 0.0 0.0 0.00 0.00 0.00 77 1017.3